Orbital Elements at Epoch 2459000.5 (2020-May-31.0) TDB
Reference: JPL 11 (heliocentric ecliptic J2000)
Element | Value | Uncertainty (1-sigma) | Units |
e | .1560248073139187 | 6.4057e-08 | |
a | 2.387014202930688 | 3.0201e-08 | au |
q | 2.01458077186284 | 1.5987e-07 | au |
i | 7.881868707825138 | 6.3729e-06 | deg |
node | 99.23055353986486 | 5.6694e-05 | deg |
peri | 165.7905452420958 | 6.1662e-05 | deg |
M | 261.6714037166325 | 2.87e-05 | deg |
tp | 2459368.424128698346 (2021-Jun-02.92412870) | 0.00011021 | TDB |
period | 1347.041362715042 3.69 | 2.5565e-05 6.999e-08 | d yr |
n | .2672523724693937 | 5.072e-09 | deg/d |
Q | 2.759447633998536 | 3.4913e-08 | au |
|
| | Orbit Determination Parameters
Additional Information
|